Weather History for Jerez de la Frontera, Spain

Change the Weather History Date:

Thursday, December 20, 2012

  Actual Average Record
Temperature  
Mean Temperature 57 °F -  
Max Temperature 66 °F 59 °F 66 °F (2012)
Min Temperature 48 °F 41 °F 32 °F (2006)
Degree Days  
Heating Degree Days 8    
Growing Degree Days 7 (Base 50)    
Moisture  
Dew Point 56 °F    
Average Humidity 92    
Maximum Humidity 100    
Minimum Humidity 73    
Precipitation  
Precipitation 0.00 in 0.13 in - ()
Sea Level Pressure  
Sea Level Pressure 30.19 in    
Wind  
Wind Speed 3 mph ()    
Max Wind Speed 10 mph    
Max Gust Speed -    
Visibility 4.3 miles    
Events Fog    
Averages and records for this station are not official NWS values.
T = Trace of Precipitation, MM = Missing Value Source: Averaged Metar Reports

Daily Weather History Graph

Daily Weather History Graph

Search for Another Location

Airport:

Trip Planner

Search our weather history database for the weather conditions in past years. The results will help you decide how hot, cold, wet, or windy it might be!

Date:

Astronomy

Dec. 20, 2012 Rise Set
Actual Time 8:32 AM CET 6:11 PM CET
Civil Twilight 8:03 AM CET 6:40 PM CET
Nautical Twilight 7:31 AM CET 7:12 PM CET
Astronomical Twilight 6:59 AM CET 7:44 PM CET
Moon 1:15 PM CET (12/20) 1:14 AM CET (12/20)
Length of Visible Light 10h 36m
Length of Day
9h 38m
First Quarter, 52% of the Moon is Illuminated
Dec 20
First Quarter
Dec 28
Full
Jan 5
Last Quarter
Jan 11
New
Jan 19
First Quarter

Hourly Weather History & Observations

Time (CET) Temp. Dew Point Humidity Pressure Visibility Wind Dir Wind Speed Gust Speed Precip Events Conditions
1:00 AM 52 °F 52 °F 100% 30.20 in - East 1.2 mph - -  
5:00 AM 50.0 °F 50.0 °F 100% 30.18 in 2.2 mi Variable 2.3 mph - N/A Fog Fog
5:30 AM 48.2 °F 48.2 °F 100% 30.18 in 2.8 mi Variable 1.2 mph - N/A Fog Mostly Cloudy
6:00 AM 48.2 °F 48.2 °F 100% 30.15 in 1.6 mi Variable 1.2 mph - N/A Fog Patches of Fog
6:30 AM 48.2 °F 48.2 °F 100% 30.15 in 0.2 mi Variable 2.3 mph - N/A Fog Patches of Fog
7:00 AM 48 °F 48 °F 100% 30.18 in - East 1.2 mph - -  
7:00 AM 48.2 °F 48.2 °F 100% 30.15 in 0.2 mi Variable 1.2 mph - N/A Fog Patches of Fog
7:30 AM 48.2 °F 48.2 °F 100% 30.15 in 1.2 mi Variable 1.2 mph - N/A Fog Patches of Fog
8:00 AM 48.2 °F 48.2 °F 100% 30.18 in 1.9 mi Variable 1.2 mph - N/A   Scattered Clouds
8:30 AM 50.0 °F 50.0 °F 100% 30.18 in 1.0 mi Variable 1.2 mph - N/A   Partly Cloudy
9:00 AM 50.0 °F 50.0 °F 100% 30.18 in 1.0 mi Calm Calm - N/A   Partly Cloudy
9:30 AM 51.8 °F 51.8 °F 100% 30.18 in 0.9 mi Calm Calm - N/A   Partly Cloudy
10:00 AM 53.6 °F 53.6 °F 100% 30.21 in 1.0 mi Calm Calm - N/A   Partly Cloudy
10:30 AM 55.4 °F 55.4 °F 100% 30.21 in 1.2 mi Calm Calm - N/A   Scattered Clouds
11:00 AM 59.0 °F 59.0 °F 100% 30.21 in 2.8 mi Variable 1.2 mph - N/A   Scattered Clouds
11:30 AM 60.8 °F 59.0 °F 94% 30.21 in 2.8 mi Calm Calm - N/A   Scattered Clouds
11:50 AM 62.6 °F 60.8 °F 94% 30.21 in 3.7 mi Variable 2.3 mph - N/A   Scattered Clouds
12:00 PM 62.6 °F 59.0 °F 88% 30.21 in 3.7 mi South 4.6 mph - N/A   Scattered Clouds
12:30 PM 64.4 °F 59.0 °F 83% 30.21 in 4.3 mi SSW 6.9 mph - N/A   Scattered Clouds
1:00 PM 64 °F 60 °F 84% 30.22 in 8 mi SSW 9.2 mph - -   Partly Cloudy
1:00 PM 64.4 °F 57.2 °F 77% 30.21 in 6.2 mi SW 9.2 mph - N/A   Scattered Clouds
1:30 PM 64.4 °F 59.0 °F 83% 30.18 in 6.2 mi SSW 8.1 mph - N/A   Scattered Clouds
2:00 PM 66.2 °F 57.2 °F 73% 30.18 in 6.2 mi SSW 9.2 mph - N/A   Scattered Clouds
2:30 PM 64.4 °F 57.2 °F 77% 30.18 in 6.2 mi SSW 10.4 mph - N/A   Scattered Clouds
3:00 PM 64.4 °F 57.2 °F 77% 30.18 in 6.2 mi SSW 10.4 mph - N/A   Scattered Clouds
3:30 PM 64.4 °F 57.2 °F 77% 30.18 in 6.2 mi SSW 10.4 mph - N/A   Mostly Cloudy
4:00 PM 64.4 °F 57.2 °F 77% 30.18 in 6.2 mi SSW 9.2 mph - N/A   Mostly Cloudy
4:30 PM 60.8 °F 55.4 °F 82% 30.18 in 6.2 mi SW 10.4 mph - N/A   Mostly Cloudy
5:00 PM 62.6 °F 57.2 °F 82% 30.18 in 6.2 mi SW 4.6 mph - N/A   Mostly Cloudy
5:30 PM 62.6 °F 55.4 °F 77% 30.18 in 6.2 mi SW 9.2 mph - N/A   Overcast
6:00 PM 62.6 °F 57.2 °F 82% 30.18 in 6.2 mi SW 4.6 mph - N/A   Overcast
6:30 PM 60.8 °F 57.2 °F 88% 30.18 in 5.6 mi SSW 3.5 mph - N/A   Mostly Cloudy
7:00 PM 61 °F 60 °F 97% 30.21 in - SSW 8.1 mph - -  
7:00 PM 60.8 °F 59.0 °F 94% 30.18 in 5.6 mi SSW 6.9 mph - N/A   Mostly Cloudy
7:30 PM 60.8 °F 59.0 °F 94% 30.21 in 6.2 mi Variable 1.2 mph - N/A   Light Drizzle
8:00 PM 60.8 °F 59.0 °F 94% 30.21 in 6.2 mi Calm Calm - N/A   Mostly Cloudy
8:30 PM 60.8 °F 59.0 °F 94% 30.21 in 6.2 mi Calm Calm - N/A   Mostly Cloudy
9:00 PM 60.8 °F 59.0 °F 94% 30.21 in 5.6 mi Calm Calm - N/A   Mostly Cloudy
9:30 PM 60.8 °F 59.0 °F 94% 30.21 in 5.6 mi Variable 2.3 mph - N/A   Mostly Cloudy
10:00 PM 60.8 °F 59.0 °F 94% 30.24 in 6.2 mi Variable 2.3 mph - N/A   Mostly Cloudy
10:30 PM 60.8 °F 60.8 °F 100% 30.24 in 6.2 mi Variable 2.3 mph - N/A   Mostly Cloudy
11:00 PM 60.8 °F 60.8 °F 100% 30.24 in 6.2 mi Calm Calm - N/A   Mostly Cloudy